Location: Honey Creek State Natural Area
(29.8555°N, 98.4942°W)
Time: 17:34:24
(UTC-05:00)

OTV 5 (USA 277) - Visible Passes

Search period start: 22 July 2018 00:00
Search period end: 01 August 2018 00:00
Orbit: 312 x 321 km, 54.5° (Epoch: 05 July)

Date Brightness Start Highest point End Pass type
(mag) Time Alt. Az. Time Alt. Az. Time Alt. Az.
25 Jul ? 05:40:05 10° S 05:41:57 17° SE 05:43:51 10° E visible
26 Jul ? 05:54:29 19° SSW 05:56:16 72° SE 05:58:57 10° NE visible
27 Jul ? 06:08:47 13° WSW 06:10:43 26° NW 06:13:04 10° NNE visible
28 Jul ? 04:52:07 22° E 04:52:07 22° E 04:53:24 10° ENE visible
29 Jul ? 05:06:16 32° N 05:06:16 32° N 05:07:58 10° NNE visible
30 Jul ? 05:20:20 15° NNW 05:20:20 15° NNW 05:21:38 10° N visible
